TimeCDT,TemperatureF,Dew PointF,Humidity,Sea Level PressureIn,VisibilityMPH,Wind Direction,Wind SpeedMPH,Gust SpeedMPH,PrecipitationIn,Events,Conditions,WindDirDegrees,DateUTC
12:56 AM,73.9,70.0,87,30.03,10.0,SE,8.1,-,N/A,,Clear,130,2013-05-30 05:56:00
1:56 AM,73.9,70.0,87,30.01,10.0,SE,6.9,-,N/A,,Clear,130,2013-05-30 06:56:00
2:38 AM,73.4,71.6,94,30.02,10.0,ESE,10.4,-,N/A,,Mostly Cloudy,120,2013-05-30 07:38:00
2:56 AM,73.9,70.0,87,30.01,10.0,SE,6.9,-,N/A,,Mostly Cloudy,130,2013-05-30 07:56:00
3:04 AM,73.4,69.8,88,30.01,10.0,SE,8.1,-,N/A,,Scattered Clouds,130,2013-05-30 08:04:00
3:56 AM,73.9,70.0,87,30.01,10.0,SE,5.8,-,N/A,,Mostly Cloudy,130,2013-05-30 08:56:00
4:56 AM,73.9,71.1,91,30.02,10.0,ESE,5.8,-,N/A,,Mostly Cloudy,120,2013-05-30 09:56:00
5:56 AM,75.0,71.1,87,30.04,5.0,ESE,11.5,-,0.01,,Mostly Cloudy,110,2013-05-30 10:56:00
6:09 AM,75.2,71.6,89,30.05,6.0,ESE,8.1,-,0.00,Rain,Light Rain,110,2013-05-30 11:09:00
6:56 AM,75.9,71.1,85,30.05,6.0,ESE,10.4,-,0.01,Rain,Light Rain,110,2013-05-30 11:56:00
7:36 AM,77.0,71.6,83,30.06,7.0,East,10.4,-,0.00,,Mostly Cloudy,100,2013-05-30 12:36:00
7:56 AM,77.0,71.1,82,30.06,7.0,ESE,15.0,20.7,0.00,,Mostly Cloudy,110,2013-05-30 12:56:00
8:36 AM,77.0,71.6,83,30.08,7.0,ESE,11.5,21.9,0.00,Rain,Light Rain,120,2013-05-30 13:36:00
8:56 AM,79.0,71.1,77,30.07,7.0,SE,15.0,-,0.00,,Mostly Cloudy,140,2013-05-30 13:56:00
9:56 AM,79.0,69.1,72,30.07,7.0,SE,23.0,29.9,0.00,Rain,Light Rain,130,2013-05-30 14:56:00
10:56 AM,82.0,69.1,65,30.08,7.0,SE,18.4,26.5,0.00,,Mostly Cloudy,130,2013-05-30 15:56:00
11:56 AM,84.9,69.1,59,30.05,7.0,ESE,20.7,29.9,0.00,,Mostly Cloudy,120,2013-05-30 16:56:00
12:56 PM,87.1,69.1,55,30.07,7.0,SE,19.6,31.1,N/A,,Mostly Cloudy,140,2013-05-30 17:56:00
1:56 PM,81.0,69.1,67,30.05,10.0,SE,19.6,-,0.02,,Overcast,130,2013-05-30 18:56:00
2:56 PM,86.0,66.9,53,30.03,10.0,SE,21.9,28.8,N/A,,Scattered Clouds,140,2013-05-30 19:56:00
3:56 PM,84.0,68.0,58,30.02,10.0,SE,15.0,27.6,N/A,,Mostly Cloudy,130,2013-05-30 20:56:00
4:56 PM,84.0,69.1,61,30.02,10.0,SE,18.4,23.0,N/A,,Mostly Cloudy,140,2013-05-30 21:56:00
5:56 PM,81.0,68.0,65,30.01,10.0,ESE,13.8,24.2,N/A,,Mostly Cloudy,120,2013-05-30 22:56:00
6:56 PM,79.0,68.0,69,30.01,10.0,SE,12.7,24.2,N/A,,Scattered Clouds,130,2013-05-30 23:56:00
7:56 PM,78.1,69.1,74,30.02,10.0,SE,11.5,20.7,N/A,,Scattered Clouds,130,2013-05-31 00:56:00
8:56 PM,75.9,69.1,79,30.02,10.0,SE,13.8,-,N/A,,Scattered Clouds,130,2013-05-31 01:56:00
9:56 PM,75.9,69.1,79,30.04,10.0,SE,10.4,-,N/A,,Partly Cloudy,130,2013-05-31 02:56:00
10:56 PM,75.9,69.1,79,30.05,10.0,SE,10.4,-,N/A,,Partly Cloudy,140,2013-05-31 03:56:00
11:56 PM,75.0,70.0,84,30.04,10.0,SE,6.9,-,N/A,,Clear,140,2013-05-31 04:56:00